RBG251 HEGN-LEBB

Flight info

Callsign RBG251
Flight time N/A
Altitude 34000
Route BOTIX1B BOTIX V608 NABED T55 KUNKI P751 TAKRI N710 KIVIL L613 MMA P751 METRU/N0457F320 UL81 LORNO DCT NISUV DCT PEROS DCT VULKA DCT AMANO DCT RONAB DCT QUENN DCT MOROB DCT GINOX DCT CEGAM
Aircraft A21N/M-SDE3FGHIRWY/LB1

Departure

Time 2026-04-30 09:49
Airport Hurghada International Airport (HEGN)

Arrival

Time N/A
Airport Bilbao Airport (LEBB)
Time Latitude Longitude Altitude Speed Heading
2026-04-30 09:24 27.18158 33.80552 61 ft 0 kts 75°
2026-04-30 09:38 27.18157 33.80545 61 ft 2 kts 75°
2026-04-30 09:38 27.18153 33.80529 61 ft 2 kts 75°
2026-04-30 09:39 27.18149 33.80512 61 ft 2 kts 75°
2026-04-30 09:39 27.18145 33.80495 61 ft 2 kts 75°
2026-04-30 09:39 27.18141 33.80478 61 ft 2 kts 75°
2026-04-30 09:39 27.18140 33.80459 61 ft 2 kts 105°
2026-04-30 09:40 27.18147 33.80442 61 ft 2 kts 130°
2026-04-30 09:40 27.18158 33.80432 61 ft 2 kts 154°
2026-04-30 09:40 27.18166 33.80428 61 ft 0 kts 167°
2026-04-30 09:40 27.18143 33.80436 61 ft 6 kts 166°
2026-04-30 09:41 27.18117 33.80444 61 ft 1 kts 165°
2026-04-30 09:41 27.18116 33.80444 61 ft 0 kts 165°
2026-04-30 09:43 27.18114 33.80445 61 ft 0 kts 165°
2026-04-30 09:43 27.18104 33.80447 61 ft 2 kts 165°
2026-04-30 09:43 27.18086 33.80453 61 ft 3 kts 165°
2026-04-30 09:43 27.18048 33.80464 61 ft 7 kts 165°
2026-04-30 09:44 27.17989 33.80481 61 ft 10 kts 165°
2026-04-30 09:44 27.17909 33.80505 61 ft 13 kts 165°
2026-04-30 09:44 27.17848 33.80477 61 ft 10 kts 254°
2026-04-30 09:44 27.17825 33.80381 61 ft 13 kts 255°
2026-04-30 09:45 27.17782 33.80300 61 ft 11 kts 194°
2026-04-30 09:45 27.17696 33.80318 61 ft 14 kts 164°
2026-04-30 09:45 27.17593 33.80350 61 ft 16 kts 165°
2026-04-30 09:45 27.17476 33.80384 61 ft 18 kts 167°
2026-04-30 09:46 27.17349 33.80418 61 ft 19 kts 166°
2026-04-30 09:46 27.17207 33.80459 61 ft 21 kts 165°
2026-04-30 09:46 27.17059 33.80502 61 ft 22 kts 165°
2026-04-30 09:46 27.16902 33.80550 62 ft 23 kts 164°
2026-04-30 09:47 27.16741 33.80598 62 ft 24 kts 166°
2026-04-30 09:47 27.16577 33.80646 62 ft 24 kts 163°
2026-04-30 09:47 27.16442 33.80687 62 ft 9 kts 166°
2026-04-30 09:47 27.16381 33.80677 62 ft 9 kts 233°
2026-04-30 09:48 27.16359 33.80590 62 ft 11 kts 256°
2026-04-30 09:48 27.16391 33.80529 62 ft 10 kts 343°
2026-04-30 09:48 27.16569 33.80477 62 ft 56 kts 345°
2026-04-30 09:48 27.17165 33.80302 62 ft 117 kts 345°
2026-04-30 09:49 27.18188 33.80000 66 ft 169 kts 344°
2026-04-30 09:49 27.19371 33.79637 622 ft 167 kts 344°
2026-04-30 09:49 27.20497 33.79259 1291 ft 165 kts 342°
2026-04-30 09:49 27.21635 33.78872 1938 ft 165 kts 342°
2026-04-30 09:50 27.22837 33.78461 2315 ft 185 kts 342°
2026-04-30 09:50 27.24168 33.77992 2744 ft 202 kts 341°
2026-04-30 09:50 27.25633 33.77496 3316 ft 214 kts 343°
2026-04-30 09:50 27.27167 33.77008 3947 ft 224 kts 344°
2026-04-30 09:51 27.28751 33.76536 4621 ft 230 kts 345°
2026-04-30 09:51 27.30365 33.76041 5289 ft 237 kts 340°
2026-04-30 09:51 27.31834 33.75044 5827 ft 250 kts 315°
2026-04-30 09:51 27.32827 33.73338 6430 ft 262 kts 291°
2026-04-30 09:52 27.33102 33.71230 7177 ft 268 kts 266°
2026-04-30 09:52 27.32581 33.69131 7927 ft 273 kts 249°
2026-04-30 09:52 27.31818 33.67051 8565 ft 279 kts 250°
2026-04-30 09:52 27.31104 33.64939 9306 ft 281 kts 253°
2026-04-30 09:53 27.30460 33.62758 9964 ft 285 kts 254°
2026-04-30 09:53 27.29822 33.60543 10541 ft 294 kts 255°
2026-04-30 09:53 27.29142 33.58193 10864 ft 311 kts 254°
2026-04-30 09:53 27.28413 33.55695 11179 ft 328 kts 254°
2026-04-30 09:54 27.27657 33.53129 11466 ft 344 kts 254°
2026-04-30 09:54 27.26847 33.50393 11946 ft 354 kts 254°
2026-04-30 09:54 27.26043 33.47687 12642 ft 356 kts 254°
2026-04-30 09:54 27.25226 33.44927 13315 ft 358 kts 255°
2026-04-30 09:55 27.24415 33.42183 13975 ft 360 kts 255°
2026-04-30 09:55 27.23603 33.39436 14651 ft 362 kts 255°
2026-04-30 09:55 27.22785 33.36671 15303 ft 363 kts 256°
2026-04-30 09:55 27.22169 33.33818 15944 ft 362 kts 264°
2026-04-30 09:56 27.21970 33.30944 16585 ft 360 kts 272°
2026-04-30 09:56 27.22121 33.28059 17221 ft 361 kts 277°
2026-04-30 09:56 27.22359 33.25178 17869 ft 361 kts 277°
2026-04-30 09:56 27.22606 33.22313 18467 ft 362 kts 277°
2026-04-30 09:57 27.22853 33.19427 19051 ft 364 kts 277°
2026-04-30 09:57 27.23098 33.16517 19650 ft 365 kts 277°
2026-04-30 09:57 27.23341 33.13612 20175 ft 367 kts 276°
2026-04-30 09:57 27.23586 33.10645 20718 ft 369 kts 276°
2026-04-30 09:58 27.23823 33.07738 21253 ft 370 kts 276°
2026-04-30 09:58 27.24071 33.04697 21808 ft 371 kts 276°
2026-04-30 09:58 27.24314 33.01700 22306 ft 373 kts 276°
2026-04-30 09:58 27.24552 32.98735 22778 ft 375 kts 276°
2026-04-30 09:59 27.25044 32.92601 23744 ft 379 kts 276°
2026-04-30 09:59 27.25537 32.86449 24595 ft 383 kts 276°
2026-04-30 10:00 27.26030 32.80273 25353 ft 388 kts 276°
2026-04-30 10:00 27.26278 32.77149 25706 ft 391 kts 276°
2026-04-30 10:01 27.26772 32.70860 26419 ft 395 kts 276°
2026-04-30 10:01 27.27019 32.67697 26757 ft 396 kts 276°
2026-04-30 10:01 27.27268 32.64508 27093 ft 398 kts 276°
2026-04-30 10:02 27.27771 32.58061 27684 ft 402 kts 276°
2026-04-30 10:02 27.28022 32.54828 27919 ft 405 kts 276°
2026-04-30 10:02 27.28275 32.51565 28241 ft 406 kts 276°
2026-04-30 10:02 27.28526 32.48289 28639 ft 404 kts 276°
2026-04-30 10:03 27.28779 32.45007 29098 ft 402 kts 276°
2026-04-30 10:03 27.29025 32.41804 29481 ft 400 kts 276°
2026-04-30 10:03 27.29266 32.38605 29843 ft 399 kts 276°
2026-04-30 10:03 27.29572 32.35392 30198 ft 397 kts 279°
2026-04-30 10:04 27.30154 32.32283 30554 ft 395 kts 285°
2026-04-30 10:04 27.31024 32.29253 30923 ft 393 kts 290°
2026-04-30 10:04 27.32147 32.26398 31296 ft 392 kts 295°
2026-04-30 10:04 27.33526 32.23692 31690 ft 390 kts 300°
2026-04-30 10:05 27.35120 32.21160 32040 ft 389 kts 303°
2026-04-30 10:05 27.36810 32.18656 32388 ft 387 kts 304°
2026-04-30 10:05 27.38520 32.16151 32652 ft 387 kts 304°
2026-04-30 10:05 27.40197 32.13699 32865 ft 387 kts 304°
2026-04-30 10:06 27.41901 32.11209 33076 ft 388 kts 304°
2026-04-30 10:06 27.43605 32.08720 33295 ft 388 kts 304°
2026-04-30 10:06 27.45326 32.06204 33517 ft 388 kts 304°
2026-04-30 10:06 27.47020 32.03723 33716 ft 388 kts 304°
2026-04-30 10:07 27.48709 32.01250 33912 ft 387 kts 304°
2026-04-30 10:07 27.50394 31.98783 34020 ft 388 kts 304°
2026-04-30 10:07 27.52076 31.96318 34026 ft 389 kts 304°
2026-04-30 10:08 27.55474 31.91326 34024 ft 388 kts 304°
2026-04-30 10:08 27.58862 31.86350 34029 ft 390 kts 304°
2026-04-30 10:09 27.62306 31.81282 34025 ft 390 kts 304°
2026-04-30 10:09 27.65753 31.76209 34026 ft 397 kts 304°
2026-04-30 10:10 27.69243 31.71067 34028 ft 401 kts 304°
2026-04-30 10:10 27.72790 31.65835 34025 ft 401 kts 304°
2026-04-30 10:11 27.76303 31.60648 34025 ft 401 kts 304°
2026-04-30 10:11 27.79843 31.55407 34022 ft 402 kts 304°
2026-04-30 10:12 27.83377 31.50173 34021 ft 402 kts 304°
2026-04-30 10:12 27.86925 31.44909 34020 ft 400 kts 304°
2026-04-30 10:13 27.90443 31.39690 34016 ft 401 kts 304°
2026-04-30 10:13 27.93967 31.34450 34022 ft 401 kts 303°
2026-04-30 10:14 27.97462 31.29238 34016 ft 400 kts 304°
2026-04-30 10:14 28.02710 31.21413 34011 ft 400 kts 303°
2026-04-30 10:15 28.06188 31.16221 33958 ft 400 kts 303°
2026-04-30 10:15 28.09487 31.10832 33978 ft 399 kts 301°
2026-04-30 10:16 28.12703 31.05395 33999 ft 398 kts 301°
2026-04-30 10:17 28.17498 30.97272 34000 ft 399 kts 301°
2026-04-30 10:17 28.22312 30.89095 33990 ft 400 kts 301°
2026-04-30 10:18 28.25518 30.83638 33982 ft 399 kts 301°
2026-04-30 10:19 28.30320 30.75456 33987 ft 399 kts 301°
2026-04-30 10:19 28.33516 30.70002 33986 ft 399 kts 301°
2026-04-30 10:20 28.36706 30.64549 33987 ft 400 kts 301°
2026-04-30 10:20 28.41477 30.56375 33994 ft 398 kts 301°
2026-04-30 10:21 28.44631 30.50969 33993 ft 400 kts 301°
2026-04-30 10:21 28.47768 30.45587 33995 ft 399 kts 301°
2026-04-30 10:22 28.50888 30.40217 33997 ft 399 kts 301°
2026-04-30 10:22 28.54016 30.34837 34003 ft 398 kts 301°
2026-04-30 10:23 28.57126 30.29472 34014 ft 400 kts 301°
2026-04-30 10:23 28.60219 30.24135 34014 ft 400 kts 301°
2026-04-30 10:24 28.63349 30.18732 34015 ft 400 kts 301°
2026-04-30 10:24 28.66457 30.13347 34018 ft 400 kts 301°
2026-04-30 10:25 28.69556 30.07984 34041 ft 399 kts 301°
2026-04-30 10:25 28.72661 30.02596 34021 ft 399 kts 301°
2026-04-30 10:26 28.75740 29.97253 34020 ft 399 kts 300°
2026-04-30 10:26 28.78831 29.91874 34018 ft 399 kts 301°
2026-04-30 10:27 28.81929 29.86478 34024 ft 400 kts 301°
2026-04-30 10:27 28.85013 29.81095 34025 ft 399 kts 301°
2026-04-30 10:28 28.88099 29.75713 34024 ft 399 kts 301°
2026-04-30 10:28 28.91171 29.70342 34029 ft 399 kts 301°
2026-04-30 10:29 28.94246 29.64955 34027 ft 399 kts 301°
2026-04-30 10:29 28.97311 29.59586 34031 ft 399 kts 301°
2026-04-30 10:30 29.00379 29.54197 34029 ft 398 kts 301°
2026-04-30 10:30 29.03470 29.48762 34027 ft 398 kts 301°
2026-04-30 10:31 29.06555 29.43333 34028 ft 397 kts 301°
2026-04-30 10:31 29.09876 29.38071 34031 ft 398 kts 306°
2026-04-30 10:32 29.13667 29.33096 34033 ft 400 kts 309°
2026-04-30 10:32 29.17823 29.28570 34033 ft 403 kts 314°
2026-04-30 10:33 29.22342 29.24439 34035 ft 404 kts 317°
2026-04-30 10:33 29.26923 29.20448 34033 ft 404 kts 317°
2026-04-30 10:34 29.31504 29.16474 34035 ft 406 kts 317°
2026-04-30 10:34 29.36089 29.12480 34032 ft 404 kts 317°
2026-04-30 10:35 29.40402 29.08215 34031 ft 402 kts 312°
2026-04-30 10:35 29.44363 29.03487 34043 ft 400 kts 307°
2026-04-30 10:36 29.47922 28.98439 34040 ft 399 kts 305°
2026-04-30 10:36 29.51419 28.93288 34042 ft 400 kts 305°
2026-04-30 10:37 29.54919 28.88109 34042 ft 400 kts 305°
2026-04-30 10:37 29.58402 28.82946 34045 ft 399 kts 305°
2026-04-30 10:38 29.61979 28.77844 34042 ft 400 kts 308°
2026-04-30 10:38 29.65924 28.73111 34042 ft 403 kts 312°
2026-04-30 10:39 29.70379 28.68671 34042 ft 406 kts 317°
2026-04-30 10:39 29.75062 28.64485 34044 ft 407 kts 317°
2026-04-30 10:40 29.79717 28.60345 34044 ft 407 kts 318°
2026-04-30 10:40 29.84396 28.56182 34046 ft 407 kts 318°
2026-04-30 10:41 29.89052 28.52038 34042 ft 407 kts 318°
2026-04-30 10:41 29.93724 28.47874 34035 ft 408 kts 318°
2026-04-30 10:42 29.98406 28.43693 34021 ft 409 kts 318°
2026-04-30 10:42 30.03134 28.39469 34021 ft 408 kts 318°
2026-04-30 10:43 30.07840 28.35259 34016 ft 408 kts 318°
2026-04-30 10:43 30.12570 28.31022 34016 ft 409 kts 317°
2026-04-30 10:44 30.17272 28.26806 34016 ft 408 kts 317°
2026-04-30 10:44 30.21941 28.22614 34017 ft 409 kts 317°
2026-04-30 10:45 30.26649 28.18381 34019 ft 409 kts 317°
2026-04-30 10:45 30.31337 28.14157 34020 ft 409 kts 317°
2026-04-30 10:46 30.35987 28.09967 34025 ft 409 kts 318°
2026-04-30 10:46 30.40690 28.05724 34028 ft 410 kts 317°
2026-04-30 10:47 30.45436 28.01435 34033 ft 410 kts 317°
2026-04-30 10:47 30.50117 27.97200 34036 ft 409 kts 317°
2026-04-30 10:48 30.54785 27.92971 34040 ft 409 kts 318°
2026-04-30 10:48 30.59486 27.88706 34040 ft 409 kts 317°
2026-04-30 10:49 30.64188 27.84435 34042 ft 409 kts 318°
2026-04-30 10:49 30.68858 27.80190 34042 ft 410 kts 317°
2026-04-30 10:50 30.73543 27.75924 34044 ft 410 kts 317°
2026-04-30 10:50 30.78182 27.71693 34044 ft 409 kts 318°
2026-04-30 10:51 30.82807 27.67471 34048 ft 409 kts 318°
2026-04-30 10:51 30.87453 27.63225 34055 ft 409 kts 318°
2026-04-30 10:52 30.92104 27.58968 34060 ft 409 kts 318°
2026-04-30 10:52 30.96748 27.54714 34060 ft 409 kts 318°
2026-04-30 10:53 31.01366 27.50477 34066 ft 409 kts 318°
2026-04-30 10:53 31.05996 27.46224 34065 ft 409 kts 318°
2026-04-30 10:54 31.10617 27.41972 34064 ft 409 kts 317°
2026-04-30 10:54 31.15253 27.37702 34061 ft 409 kts 318°
2026-04-30 10:55 31.19851 27.33458 34059 ft 409 kts 317°
2026-04-30 10:55 31.24479 27.29185 34062 ft 409 kts 317°
2026-04-30 10:56 31.29095 27.24914 34062 ft 409 kts 317°
2026-04-30 10:56 31.33851 27.20875 34063 ft 411 kts 322°
2026-04-30 10:57 31.38837 27.17130 34058 ft 411 kts 322°
2026-04-30 10:57 31.43823 27.13404 34063 ft 411 kts 322°
2026-04-30 10:58 31.48813 27.09670 34052 ft 411 kts 322°
2026-04-30 10:58 31.53852 27.05893 34052 ft 411 kts 322°
2026-04-30 10:59 31.58845 27.02145 34052 ft 410 kts 322°
2026-04-30 10:59 31.63862 26.98374 34051 ft 410 kts 322°
2026-04-30 11:00 31.68863 26.94611 34054 ft 411 kts 322°
2026-04-30 11:00 31.73848 26.90855 34052 ft 411 kts 322°
2026-04-30 11:01 31.78829 26.87098 34053 ft 410 kts 322°
2026-04-30 11:01 31.83820 26.83328 34053 ft 409 kts 322°
2026-04-30 11:02 31.88786 26.79569 34055 ft 409 kts 322°
2026-04-30 11:02 31.93686 26.75856 34056 ft 409 kts 322°
2026-04-30 11:03 31.98655 26.72088 34050 ft 410 kts 322°
2026-04-30 11:04 32.06133 26.66406 34051 ft 410 kts 322°
2026-04-30 11:04 32.11100 26.62627 34052 ft 410 kts 322°
2026-04-30 11:05 32.16077 26.58835 34048 ft 410 kts 322°
2026-04-30 11:05 32.21090 26.55011 34048 ft 411 kts 322°
2026-04-30 11:06 32.26086 26.51195 34044 ft 410 kts 322°
2026-04-30 11:06 32.31082 26.47373 34041 ft 411 kts 322°
2026-04-30 11:07 32.36069 26.43551 34039 ft 410 kts 322°
2026-04-30 11:07 32.41013 26.39760 34036 ft 410 kts 322°
2026-04-30 11:08 32.46001 26.35930 34035 ft 410 kts 322°
2026-04-30 11:08 32.50990 26.32090 34036 ft 410 kts 322°
2026-04-30 11:09 32.55992 26.28239 34035 ft 410 kts 322°
2026-04-30 11:09 32.60992 26.24384 34036 ft 409 kts 322°
2026-04-30 11:10 32.65917 26.20583 34034 ft 409 kts 322°
2026-04-30 11:10 32.70913 26.16718 34035 ft 408 kts 322°
2026-04-30 11:11 32.75848 26.12897 34033 ft 409 kts 322°
2026-04-30 11:11 32.80842 26.09025 34034 ft 409 kts 322°
2026-04-30 11:12 32.85797 26.05179 34036 ft 408 kts 322°
2026-04-30 11:12 32.90749 26.01328 34040 ft 408 kts 322°
2026-04-30 11:13 32.95681 25.97487 34051 ft 409 kts 322°
2026-04-30 11:13 33.00642 25.93620 34057 ft 409 kts 322°
2026-04-30 11:14 33.05584 25.89764 34056 ft 409 kts 322°
2026-04-30 11:14 33.10548 25.85882 34060 ft 410 kts 322°
2026-04-30 11:15 33.15558 25.81960 34051 ft 410 kts 322°
2026-04-30 11:15 33.20554 25.78047 34062 ft 410 kts 322°
2026-04-30 11:16 33.25522 25.74146 34056 ft 410 kts 322°
2026-04-30 11:16 33.30442 25.70280 34053 ft 409 kts 322°
2026-04-30 11:17 33.35356 25.66410 34061 ft 409 kts 322°
2026-04-30 11:17 33.40302 25.62514 34060 ft 409 kts 322°
2026-04-30 11:18 33.45238 25.58618 34049 ft 409 kts 322°
2026-04-30 11:18 33.52637 25.52766 34048 ft 410 kts 322°
2026-04-30 11:19 33.57581 25.48850 34051 ft 410 kts 322°
2026-04-30 11:19 33.62562 25.44897 34040 ft 410 kts 322°
2026-04-30 11:20 33.67470 25.41000 34038 ft 410 kts 322°
2026-04-30 11:20 33.72460 25.37031 34041 ft 411 kts 322°
2026-04-30 11:21 33.77385 25.33106 34042 ft 411 kts 321°
2026-04-30 11:21 33.82368 25.29129 34041 ft 410 kts 321°
2026-04-30 11:22 33.87295 25.25193 34042 ft 411 kts 321°
2026-04-30 11:22 33.92223 25.21221 34038 ft 410 kts 320°
2026-04-30 11:23 33.96883 25.16847 34040 ft 406 kts 315°
2026-04-30 11:24 34.03093 25.09378 34035 ft 402 kts 308°
2026-04-30 11:24 34.06695 25.03854 34034 ft 401 kts 303°
2026-04-30 11:25 34.11850 24.95293 34034 ft 402 kts 303°
2026-04-30 11:26 34.18745 24.83781 34034 ft 404 kts 303°
2026-04-30 11:26 34.22181 24.78025 34027 ft 403 kts 303°
2026-04-30 11:27 34.25634 24.72229 34035 ft 403 kts 303°
2026-04-30 11:27 34.29074 24.66454 34028 ft 403 kts 303°
2026-04-30 11:28 34.34218 24.57792 34034 ft 403 kts 303°
2026-04-30 11:29 34.37627 24.52043 34032 ft 403 kts 303°
2026-04-30 11:29 34.42778 24.43336 34028 ft 402 kts 303°
2026-04-30 11:30 34.47905 24.34648 34035 ft 403 kts 302°
2026-04-30 11:31 34.51312 24.28863 34032 ft 403 kts 302°
2026-04-30 11:31 34.54728 24.23054 34028 ft 403 kts 302°
2026-04-30 11:32 34.58121 24.17275 34032 ft 402 kts 302°
2026-04-30 11:32 34.61503 24.11507 34029 ft 401 kts 302°
2026-04-30 11:33 34.66566 24.02849 34019 ft 402 kts 302°
2026-04-30 11:33 34.69932 23.97081 34022 ft 402 kts 302°
2026-04-30 11:34 34.73293 23.91313 34012 ft 402 kts 302°
2026-04-30 11:34 34.76671 23.85509 34035 ft 402 kts 302°
2026-04-30 11:35 34.80016 23.79751 34030 ft 402 kts 302°
2026-04-30 11:35 34.83370 23.73968 34009 ft 403 kts 302°
2026-04-30 11:36 34.86751 23.68128 34029 ft 402 kts 302°
2026-04-30 11:36 34.90071 23.62385 34041 ft 401 kts 302°
2026-04-30 11:37 34.93436 23.56555 34030 ft 401 kts 302°
2026-04-30 11:37 34.96785 23.50741 34029 ft 402 kts 302°
2026-04-30 11:38 35.00152 23.44889 34038 ft 403 kts 302°
2026-04-30 11:38 35.03493 23.39069 34043 ft 404 kts 302°
2026-04-30 11:39 35.06825 23.33254 34036 ft 404 kts 302°
2026-04-30 11:39 35.10166 23.27421 34039 ft 403 kts 301°
2026-04-30 11:40 35.13485 23.21612 34044 ft 404 kts 301°
2026-04-30 11:40 35.16837 23.15735 34042 ft 406 kts 301°
2026-04-30 11:41 35.20175 23.09873 34038 ft 407 kts 301°
2026-04-30 11:41 35.23492 23.04041 34044 ft 408 kts 301°
2026-04-30 11:42 35.26839 22.98144 34034 ft 409 kts 302°
2026-04-30 11:42 35.30178 22.92254 34033 ft 407 kts 301°
2026-04-30 11:43 35.33485 22.86410 34029 ft 409 kts 302°
2026-04-30 11:43 35.36823 22.80497 34033 ft 409 kts 302°
2026-04-30 11:44 35.40176 22.74548 34031 ft 410 kts 302°
2026-04-30 11:44 35.43523 22.68604 34032 ft 410 kts 302°
2026-04-30 11:45 35.46841 22.62698 34021 ft 410 kts 302°
2026-04-30 11:45 35.50197 22.56718 34025 ft 412 kts 302°
2026-04-30 11:46 35.53537 22.50752 34009 ft 412 kts 302°
2026-04-30 11:46 35.56850 22.44826 34025 ft 412 kts 302°
2026-04-30 11:47 35.60192 22.38838 34029 ft 412 kts 302°
2026-04-30 11:47 35.63519 22.32863 34021 ft 412 kts 301°
2026-04-30 11:48 35.66791 22.26985 34020 ft 412 kts 301°
2026-04-30 11:48 35.70106 22.21016 34026 ft 411 kts 301°
2026-04-30 11:49 35.73460 22.14963 34012 ft 412 kts 301°
2026-04-30 11:49 35.76785 22.08952 34011 ft 412 kts 301°
2026-04-30 11:50 35.80080 22.02985 34018 ft 413 kts 302°
2026-04-30 11:50 35.83321 21.97107 34008 ft 413 kts 302°
2026-04-30 11:51 35.86472 21.91385 34013 ft 413 kts 302°
2026-04-30 11:51 35.89684 21.85540 34006 ft 412 kts 302°
2026-04-30 11:52 35.92886 21.79702 34018 ft 412 kts 302°
2026-04-30 11:52 35.96084 21.73860 34023 ft 412 kts 302°
2026-04-30 11:53 35.99256 21.68056 34013 ft 411 kts 301°
2026-04-30 11:53 36.02465 21.62172 34003 ft 412 kts 302°
2026-04-30 11:54 36.05654 21.56324 34019 ft 412 kts 302°
2026-04-30 11:54 36.08833 21.50483 34019 ft 411 kts 301°
2026-04-30 11:55 36.12023 21.44611 34022 ft 412 kts 301°
2026-04-30 11:55 36.15208 21.38732 34011 ft 413 kts 301°
2026-04-30 11:56 36.18378 21.32870 34014 ft 412 kts 301°
2026-04-30 11:56 36.21565 21.26970 34035 ft 412 kts 301°
2026-04-30 11:57 36.24735 21.21089 34027 ft 412 kts 301°
2026-04-30 11:57 36.27911 21.15186 34020 ft 413 kts 301°
2026-04-30 11:58 36.31093 21.09267 34017 ft 413 kts 301°
2026-04-30 11:58 36.34248 21.03383 34009 ft 411 kts 301°
2026-04-30 11:59 36.37412 20.97473 34022 ft 411 kts 301°
2026-04-30 11:59 36.40577 20.91549 34018 ft 412 kts 301°
2026-04-30 12:00 36.43753 20.85596 34023 ft 412 kts 301°
2026-04-30 12:00 36.46915 20.79662 34017 ft 413 kts 301°
2026-04-30 12:01 36.50080 20.73709 34036 ft 414 kts 301°
2026-04-30 12:01 36.53236 20.67758 34015 ft 415 kts 301°
2026-04-30 12:02 36.56403 20.61782 34013 ft 415 kts 301°
2026-04-30 12:02 36.59562 20.55810 34020 ft 414 kts 301°
2026-04-30 12:03 36.64327 20.46780 34028 ft 417 kts 301°
2026-04-30 12:04 36.67485 20.40786 34029 ft 416 kts 301°
2026-04-30 12:04 36.70642 20.34782 34042 ft 417 kts 301°
2026-04-30 12:05 36.73811 20.28740 34042 ft 417 kts 301°
2026-04-30 12:05 36.76982 20.22685 34036 ft 417 kts 301°
2026-04-30 12:06 36.80136 20.16651 34041 ft 418 kts 301°
2026-04-30 12:06 36.83313 20.10562 34041 ft 419 kts 301°
2026-04-30 12:07 36.86486 20.04474 34039 ft 420 kts 301°
2026-04-30 12:07 36.89658 19.98370 34033 ft 420 kts 301°
2026-04-30 12:08 36.92817 19.92283 34029 ft 421 kts 301°
2026-04-30 12:08 36.95998 19.86140 34019 ft 421 kts 301°
2026-04-30 12:09 36.99164 19.80018 34015 ft 421 kts 301°
2026-04-30 12:09 37.02408 19.73737 34022 ft 422 kts 301°
2026-04-30 12:10 37.05727 19.67299 34021 ft 422 kts 301°
2026-04-30 12:10 37.09060 19.60816 34017 ft 422 kts 301°
2026-04-30 12:11 37.12369 19.54365 34031 ft 422 kts 301°
2026-04-30 12:11 37.15641 19.47975 34013 ft 422 kts 301°
2026-04-30 12:12 37.18962 19.41480 34031 ft 422 kts 301°
2026-04-30 12:12 37.22238 19.35061 34025 ft 422 kts 301°
2026-04-30 12:13 37.25506 19.28640 34038 ft 422 kts 300°
2026-04-30 12:13 37.28784 19.22192 34044 ft 423 kts 300°
2026-04-30 12:14 37.32033 19.15783 34039 ft 422 kts 300°
2026-04-30 12:14 37.35294 19.09338 34036 ft 422 kts 301°
2026-04-30 12:15 37.38559 19.02861 34045 ft 423 kts 300°
2026-04-30 12:15 37.41462 18.96217 34059 ft 422 kts 295°
2026-04-30 12:16 37.44107 18.89381 34031 ft 423 kts 294°
2026-04-30 12:16 37.46791 18.82394 34021 ft 422 kts 294°
2026-04-30 12:17 37.50828 18.71852 34033 ft 422 kts 295°
2026-04-30 12:17 37.53519 18.64812 34019 ft 422 kts 294°
2026-04-30 12:18 37.56193 18.57803 34029 ft 422 kts 294°
2026-04-30 12:18 37.58807 18.50933 34032 ft 423 kts 294°
2026-04-30 12:19 37.61413 18.44062 34035 ft 423 kts 295°
2026-04-30 12:19 37.63992 18.37250 34033 ft 423 kts 295°
2026-04-30 12:20 37.66584 18.30396 34037 ft 424 kts 294°
2026-04-30 12:20 37.69145 18.23603 34033 ft 424 kts 294°
2026-04-30 12:21 37.71726 18.16747 34043 ft 423 kts 294°
2026-04-30 12:21 37.74268 18.09977 34039 ft 423 kts 294°
2026-04-30 12:22 37.76852 18.03076 34033 ft 424 kts 294°
2026-04-30 12:22 37.79414 17.96217 34033 ft 425 kts 294°
2026-04-30 12:23 37.81984 17.89324 34041 ft 425 kts 294°
2026-04-30 12:23 37.84562 17.82399 34043 ft 426 kts 294°
2026-04-30 12:24 37.87132 17.75476 34050 ft 425 kts 294°
2026-04-30 12:24 37.89690 17.68566 34057 ft 426 kts 294°
2026-04-30 12:25 37.92249 17.61644 34051 ft 426 kts 294°
2026-04-30 12:25 37.94828 17.54645 34040 ft 425 kts 294°
2026-04-30 12:26 37.97397 17.47663 34054 ft 426 kts 294°
2026-04-30 12:26 37.99957 17.40682 34049 ft 426 kts 294°
2026-04-30 12:27 38.02569 17.33544 34053 ft 427 kts 294°
2026-04-30 12:27 38.05247 17.26403 34050 ft 427 kts 296°
2026-04-30 12:28 38.08144 17.19383 34055 ft 428 kts 297°
2026-04-30 12:28 38.11005 17.12474 34053 ft 427 kts 297°
2026-04-30 12:29 38.13835 17.05620 34045 ft 427 kts 297°
2026-04-30 12:29 38.16640 16.98805 34058 ft 427 kts 297°
2026-04-30 12:30 38.19385 16.92126 34064 ft 428 kts 297°
2026-04-30 12:30 38.22126 16.85442 34058 ft 428 kts 297°
2026-04-30 12:31 38.24977 16.78466 34051 ft 427 kts 297°
2026-04-30 12:31 38.27808 16.71523 34057 ft 428 kts 297°
2026-04-30 12:32 38.30669 16.64498 34044 ft 428 kts 297°
2026-04-30 12:32 38.33522 16.57473 34051 ft 427 kts 297°
2026-04-30 12:33 38.36388 16.50400 34065 ft 427 kts 297°
2026-04-30 12:33 38.39200 16.43448 34064 ft 426 kts 297°
2026-04-30 12:34 38.41978 16.36560 34061 ft 426 kts 297°
2026-04-30 12:34 38.44820 16.29493 34063 ft 426 kts 297°
2026-04-30 12:35 38.47649 16.22455 34066 ft 426 kts 297°
2026-04-30 12:35 38.50362 16.15680 34076 ft 426 kts 297°
2026-04-30 12:36 38.53062 16.08932 34054 ft 426 kts 297°
2026-04-30 12:36 38.55720 16.02264 34049 ft 425 kts 297°
2026-04-30 12:37 38.58461 15.95377 34040 ft 425 kts 297°
2026-04-30 12:37 38.61146 15.88611 34022 ft 424 kts 297°
2026-04-30 12:38 38.63720 15.81875 34039 ft 424 kts 295°
2026-04-30 12:38 38.65861 15.75061 34027 ft 426 kts 292°
2026-04-30 12:39 38.67933 15.68163 34033 ft 425 kts 292°
2026-04-30 12:39 38.70013 15.61227 34031 ft 425 kts 292°
2026-04-30 12:40 38.72074 15.54335 34022 ft 424 kts 292°
2026-04-30 12:40 38.74211 15.47173 34034 ft 424 kts 292°
2026-04-30 12:41 38.76352 15.39970 34031 ft 423 kts 292°
2026-04-30 12:41 38.78485 15.32787 34039 ft 423 kts 292°
2026-04-30 12:42 38.80788 15.26021 34039 ft 422 kts 297°
2026-04-30 12:42 38.83347 15.19870 34041 ft 422 kts 299°
2026-04-30 12:43 38.86073 15.13520 34030 ft 421 kts 300°
2026-04-30 12:43 38.88820 15.07108 34041 ft 422 kts 300°
2026-04-30 12:44 38.91581 15.00641 34033 ft 421 kts 300°
2026-04-30 12:44 38.94149 14.94618 34040 ft 421 kts 300°
2026-04-30 12:45 38.96850 14.88269 34035 ft 419 kts 300°
2026-04-30 12:45 38.99218 14.82687 34036 ft 419 kts 300°